Regional Weather Roundup
Issued by NWS Charleston, SC

Current Version | Previous Version | Graphics & Text | Print | Product List | Glossary On
Versions: 1 2 3 4 5 6 7 8 9 10 11 12 13 14 15 16 17 18 19 20 21 22 23 24 25 26 27 28 29 30 31 32 33 34 35 36 37 38 39 40 41 42 43 44 45 46 47 48 49 50
000 ASUS42 KCHS 280525 RWRCHS REGIONAL WEATHER ROUNDUP NATIONAL WEATHER SERVICE CHARLESTON SC 100 AM EDT THU AUG 28 2014 NOTE: "FAIR" INDICATES FEW OR NO CLOUDS BELOW 12,000 FEET WITH NO SIGNIFICANT WEATHER AND/OR OBSTRUCTIONS TO VISIBILITY. NOT ALL STATIONS ARE QUALITY CONTROLLED BY THE NATIONAL WEATHER SERVICE. USE DATA WITH CAUTION...ESPECIALLY DEWPOINT OBSERVATIONS. SCZ027-030-031-034>040-042>050-280600- ...SOUTH CAROLINA... CITY SKY/WX TMP DP RH WIND PRES REMARKS N CHARLESTON CLEAR 72 66 81 CALM 30.01S WATERFRONT PRK NOT AVBL FORT JOHNSON NOT AVBL MOUNT PLEASANT FAIR 70 68 94 CALM 30.01S JOHNS ISLAND CLEAR 72 70 94 CALM 30.01F PINOPOLIS N/A 75 64 69 SW5 29.93R MONCKS CORNER N/A 66 66 100 CALM 30.00F SUMMERVILLE FAIR 64 64 100 CALM 30.02F BEAUFORT MCAS CLEAR 71 67 87 CALM 30.01S BEAUFORT ARPT FAIR 72 70 94 CALM 30.00F HILTON HEAD IS CLOUDY 72 70 94 CALM 30.02S GEORGETOWN NOT AVBL WALTERBORO CLEAR 66 N/A N/A CALM 30.02S ORANGEBURG CLEAR 66 61 84 CALM 30.02F BARNWELL FAIR 64 57 77 CALM 30.03S AIKEN FAIR 68 59 73 CALM 30.06F MANNING FAIR 64 N/A N/A CALM 30.01S KINGSTREE NOT AVBL COLUMBIA CLEAR 67 61 81 S3 30.01S SUMTER CLEAR 67 62 83 SW2 30.00S FLORENCE CLEAR 65 58 78 CALM 30.00S MYRTLE BEACH CLEAR 70 64 83 W6 30.00S N MYRTLE BEACH NOT AVBL $$ GAZ063-065-086>088-099>101-113>116-118-119-134-136>141-150-280600- ...GEORGIA... CITY SKY/WX TMP DP RH WIND PRES REMARKS SAVANNAH ARPT CLEAR 71 65 81 CALM 30.02S HUNTER AAF CLEAR 67 64 90 CALM 30.00S FORT STEWART CLEAR 68 63 86 CALM 30.01S STATESBORO NOT AVBL SYLVANIA CLEAR 67 65 94 CALM 30.04R CLAXTON NOT AVBL THOMSON CLEAR 64 64 100 CALM 30.07F AUGUSTA-BUSH CLEAR 63 59 87 CALM 30.01S AUGUSTA-DANIEL CLEAR 78 56 46 E6 30.03S SWAINSBORO FAIR 72 64 78 CALM 30.03S VIDALIA N/A 70 64 83 CALM 30.03S ALMA CLEAR 66 64 93 CALM 30.02S WAYCROSS CLEAR 73 68 87 CALM 30.02F JESUP N/A 66 64 94 CALM 30.02F BRUNSWICK CLEAR 68 64 88 CALM 30.02F SAINT SIMONS CLEAR 76 67 73 SE3 30.01F $$ SCZ027-028-034-036>038-045-046-048>050-GAZ119-141-280600- ...LAKE AND SUPPLEMENTAL COASTAL OBSERVATIONS... STATION/POSITION TIME TEMP WIND PRES WAVE SWELL AIR SEA DIR/SP/G HT/PER HT/PER/DIR (UTC) (F) (DEG/KT/KT) (MB) (FT/S) (FT/S/D) UPR LAKE MARION NOT AVBL WINYAH BAY 0500 74 260/ 2 1016.0S LAKE MURRAY 0500 74 CALM / 2 1015.9S ACE BASIN NERRS 0500 72 CALM 1016.0S FORT PULASKI 0500 78 160/ 2/ 4 1016.5S SAPELO ISLAND 0500 72 120/ 3 1016.0F $$ ANZ835-935-AMZ111-154-330-350-352-354-374-450-454-472-280600- ...C-MAN AND BUOY OBSERVATIONS... STATION/POSITION TIME TEMP WIND PRES WAVE SWELL AIR SEA DIR/SP/G HT/PER HT/PER/DIR (UTC) (F) (DEG/KT/KT) (MB) (FT/S) (FT/S/D) FOLLY BEACH CMAN 0500 78 250/ 4/ 5 1016.6F BUOY 41004 0500 81 82 260/ 8/ 10 1015.6R 6/10 7/10 BUOY 41008 0500 81 84 110/ 6/ 8 1016.2S 4/11 3/ 90/11 5E ST. MARYS GA 0500 83 N/A 4/11 2/100/11 FRYING PAN BUOY NOT AVBL BUOY 41025 0500 76 320/ 14/ 16 1012.9R 7/11 7/120/11 CAPE LOOKOUT NC 0500 76 330/ 7/ 8 1014.2S BUOY 41002 0356 80 81 320/ 14/ 16 1014.3R 9/ 8 8/ 40/ 8 BUOY 41010 0500 82 83 140/ 4/ 6 1016.4R 9/10 8/ 40/10 BUOY 41012 NOT AVBL ST AUGUSTINE FL 0500 80 110/ 5/ 6 1017.2F CAPERS NEARSHORE 0400 80 240/ 8/ 10 N/A FRIPP NEARSHORE NOT AVBL $$

USA.gov is the U.S. government's official web portal to all federal, state and local government web resources and services.